Theta_e
323 323 323 324 324 322 322 321 322 323 323 324 324 325 324 328 328 325 317 324 329 334 332 329 324 324 326 324 323 318 307 305 308 309 311 314 312 315 317 315 318 322 320 325 332
322 323 323 323 323 323 322 322 322 322 323 324 324 324 324 327 324 319 328 332 332 333 327 324 319 320 318 320 322 315 310 310 314 315 313 314 313 315 313 314 315 318 324 328 332
322 322 322 322 323 323 322 322 322 323 323 325 324 324 324 326 316 315 331 331 332 332 328 328 325 319 314 319 319 317 310 314 315 316 313 312 311 313 312 312 316 316 320 326 329
321 321 321 321 322 322 323 322 322 323 323 324 324 324 324 322 296 320 330 332 331 329 326 323 321 313 310 311 317 312 316 316 316 313 314 313 316 312 312 314 319 317 321 326 326
319 320 320 320 321 322 321 322 322 323 322 323 323 323 319 309 307 324 328 328 327 323 321 319 316 313 308 309 312 313 313 317 317 316 316 316 314 315 314 317 319 318 318 324 326
318 318 319 319 320 321 321 321 321 322 322 322 323 323 310 299 315 323 323 324 323 321 319 320 316 317 311 310 309 311 312 313 316 316 316 312 313 314 316 318 314 315 316 321 325
316 317 318 319 319 320 320 321 320 320 321 321 321 315 306 303 316 319 321 320 324 322 317 320 321 316 314 309 313 312 306 309 310 312 313 314 309 310 315 319 318 315 315 319 323
315 316 317 318 318 319 320 320 320 319 319 321 320 311 301 311 316 317 320 318 324 324 322 323 322 317 313 313 309 307 306 300 306 308 311 310 301 311 317 318 317 316 315 317 321
314 314 316 317 318 318 319 319 318 319 319 319 311 307 299 313 307 312 318 315 320 322 322 322 320 313 312 305 301 303 296 298 301 308 307 308 301 309 316 316 314 316 315 315 319
313 314 315 316 317 318 318 319 318 317 315 313 309 300 303 299 306 309 318 317 314 315 312 312 312 305 305 302 292 295 296 298 298 304 307 305 305 309 314 314 314 316 316 315 316
312 313 314 315 316 318 316 313 304 300 304 298 299 298 300 305 309 306 315 314 313 308 300 307 299 296 300 303 302 299 299 298 301 304 303 303 304 305 310 313 314 314 316 316 314
311 312 313 314 315 316 314 303 303 304 295 302 302 301 303 306 299 303 313 305 304 299 303 300 295 303 304 303 301 300 297 298 301 304 303 301 300 304 306 309 313 316 316 317 317
308 311 312 313 314 312 306 305 311 309 294 296 301 300 302 304 298 299 306 304 300 297 299 294 299 303 301 300 298 298 297 298 297 302 304 301 299 301 306 309 311 314 317 318 319
307 310 311 312 307 308 303 310 310 307 287 289 294 299 302 303 296 305 306 303 300 297 299 298 302 300 300 297 300 293 302 300 298 297 292 302 290 299 303 304 306 311 314 316 318
309 310 310 311 304 301 305 310 308 299 276 290 293 305 302 297 298 299 308 302 296 296 298 294 298 297 296 298 302 297 302 300 299 297 296 296 291 297 302 301 304 307 312 316 318
308 309 309 306 307 307 309 309 302 281 275 286 293 292 293 295 296 300 301 304 302 297 298 298 303 301 300 302 302 303 298 298 297 295 286 293 293 293 298 301 304 308 309 313 315
306 308 307 306 300 310 310 300 282 277 286 284 287 292 292 290 292 294 294 294 290 286 288 294 295 300 301 297 301 300 295 286 284 284 283 294 292 294 302 304 306 307 309 311 314
306 307 306 306 307 309 303 289 277 284 284 290 290 290 287 290 290 292 291 289 294 292 289 286 284 295 300 298 296 295 295 286 280 283 286 294 288 295 304 307 308 308 310 311 311
306 305 303 304 308 307 293 281 282 284 288 287 289 285 286 289 290 289 289 290 293 293 286 287 286 298 299 300 299 294 290 298 290 289 286 290 295 300 304 304 305 307 308 310 311
301 298 297 307 307 300 286 284 285 291 291 290 283 286 283 286 287 288 288 292 291 295 295 289 284 292 296 299 299 297 299 289 289 281 280 286 289 291 298 301 304 305 307 309 311
298 289 300 307 305 291 281 283 286 292 293 289 287 286 287 286 288 287 288 291 293 292 295 291 288 288 291 289 291 293 291 292 291 289 283 282 287 299 299 302 303 305 306 308 309
294 283 302 305 286 285 283 287 287 288 293 292 292 290 289 289 287 287 287 290 295 294 289 292 289 283 286 293 295 294 293 293 286 284 288 287 288 301 303 303 304 303 305 307 308
287 287 301 300 280 282 287 286 287 288 290 290 289 292 292 288 285 288 289 294 295 294 290 292 287 280 282 287 291 288 292 293 293 291 285 283 286 300 302 301 303 303 302 304 304
285 282 288 291 290 286 284 284 284 292 291 291 290 292 291 288 290 287 288 291 294 294 295 295 288 284 280 284 287 285 288 291 291 285 286 286 289 294 296 297 300 302 304 303 303
286 285 287 281 283 285 287 286 284 284 288 290 288 290 289 286 286 286 289 289 291 294 293 292 284 286 287 288 287 286 286 287 285 288 285 288 289 293 296 297 299 300 301 300 302
286 285 289 286 286 284 287 286 285 286 287 286 286 290 290 287 288 285 289 288 287 290 290 292 284 285 282 286 286 284 287 287 288 288 288 289 288 296 297 298 297 298 299 299 300
299 297 293 287 284 285 285 287 287 289 290 291 291 290 287 290 292 293 294 293 292 289 289 288 286 283 280 285 285 279 284 286 287 288 288 284 290 296 295 296 296 296 298 299 300
Wind_Speed
24 23 21 19 18 19 18 16 14 12 11 9 8 5 3 2 2 9 11 1 1 5 7 7 6 4 4 2 2 2 2 10 14 11 10 7 5 5 3 5 5 6 3 5 13
26 25 23 21 20 19 19 17 14 12 12 11 9 6 3 3 9 15 4 2 1 4 6 7 9 6 5 4 4 10 13 20 21 12 12 6 5 7 5 8 8 8 5 3 13
27 26 25 23 20 20 20 18 15 14 13 12 10 8 5 7 10 12 15 10 7 7 8 6 9 8 11 6 9 6 15 14 6 12 6 8 7 3 9 11 9 11 12 12 12
27 27 25 24 22 21 20 19 17 15 14 14 12 9 8 11 10 6 5 15 14 10 10 10 11 13 12 12 11 10 12 14 8 5 6 10 8 11 10 11 8 5 8 16 15
23 27 26 25 23 22 21 20 18 16 16 14 12 10 9 17 17 8 1 6 14 14 15 15 15 15 17 12 12 15 15 11 10 8 10 7 13 14 12 10 12 9 5 12 15
21 24 26 25 25 23 21 21 20 18 17 16 13 12 14 21 14 7 5 3 11 18 17 17 13 14 13 19 15 6 16 14 13 15 10 10 15 6 11 9 7 10 11 13 16
22 22 26 26 25 24 22 21 20 19 18 17 15 12 15 20 1 10 6 7 7 19 18 17 17 13 9 11 13 16 13 14 17 14 13 8 17 20 16 17 15 11 13 14 15
22 21 21 26 25 25 23 21 21 19 18 15 14 13 14 15 11 5 11 11 7 13 17 14 16 11 18 11 5 15 17 19 18 18 15 9 21 18 19 20 18 17 14 14 15
22 22 20 21 25 25 24 23 21 19 19 15 13 15 14 5 16 16 12 16 9 9 12 2 8 13 13 15 14 16 18 22 20 12 15 17 15 18 21 15 16 15 15 14 14
23 22 22 18 21 25 24 24 21 19 15 9 10 10 13 18 14 21 11 13 9 6 5 8 10 12 14 16 23 18 21 20 18 17 15 20 20 19 9 10 17 16 14 14 14
24 23 22 20 19 23 22 16 11 10 22 13 17 10 9 14 12 20 15 14 15 8 11 9 8 16 31 28 19 17 15 18 19 13 10 20 22 23 19 19 17 14 15 16 15
29 26 23 21 19 20 12 16 25 4 17 19 6 21 1 13 13 23 20 18 20 20 16 8 15 31 18 19 21 20 17 17 14 9 10 18 22 21 21 21 23 20 19 18 17
30 24 23 22 18 15 15 19 17 17 6 18 13 27 11 11 12 21 26 24 25 23 21 18 16 21 15 15 17 19 21 19 15 4 13 17 23 23 26 23 23 23 22 21 20
36 22 23 22 15 14 16 17 12 5 6 13 13 14 13 10 8 17 24 22 13 26 23 20 21 6 25 17 14 22 21 14 14 6 13 13 13 17 18 23 25 23 24 23 22
30 29 22 24 9 12 9 16 12 2 8 17 15 12 18 17 13 12 18 24 20 17 19 11 13 25 13 29 20 17 13 15 15 16 15 20 12 13 21 24 19 21 23 24 22
24 25 25 16 9 16 14 19 6 1 8 12 14 21 23 20 12 18 17 18 14 14 14 18 4 7 27 13 17 6 4 8 8 9 13 25 18 13 18 21 15 20 20 21 22
22 23 22 13 14 12 18 12 10 8 8 9 19 26 29 18 16 17 24 24 16 16 19 20 17 6 4 18 11 18 11 5 6 8 12 22 17 23 9 14 18 20 19 17 16
22 22 19 13 11 13 15 13 13 11 13 10 18 24 21 19 14 18 23 19 23 19 11 18 14 20 16 19 15 18 20 4 9 8 11 13 9 16 17 25 24 23 18 14 15
22 11 12 13 13 12 10 19 12 16 8 18 21 22 8 21 12 20 25 26 24 22 11 18 18 15 18 14 11 11 22 24 19 3 4 5 12 18 10 6 9 16 15 19 16
11 10 15 17 15 11 11 15 7 16 14 22 14 16 18 27 19 23 23 23 26 24 18 5 14 10 17 16 19 17 6 12 8 7 12 14 17 13 11 17 17 17 17 15 12
10 8 11 16 12 12 10 10 3 15 21 22 19 15 20 22 22 26 22 11 27 23 18 8 7 4 16 17 21 15 15 7 1 5 9 12 12 20 16 12 11 13 17 18 17
9 9 12 15 13 10 13 3 5 19 16 13 18 17 24 25 21 23 22 13 24 20 26 11 4 6 14 2 7 19 21 23 7 11 6 6 13 12 16 20 16 15 12 14 13
8 6 13 15 15 12 6 10 4 23 21 17 15 18 22 19 14 19 18 14 15 21 19 14 7 5 3 8 10 10 17 17 18 17 19 14 14 13 12 15 16 16 16 16 16
6 9 8 14 12 12 15 21 6 24 25 17 15 14 21 20 11 17 17 8 9 16 5 12 5 9 10 5 4 16 15 13 16 12 15 15 25 33 28 24 19 13 17 20 19
5 7 7 16 17 16 20 22 16 13 1 11 12 22 24 16 17 10 18 12 11 16 10 13 8 14 17 17 11 7 6 9 17 21 18 19 23 31 31 19 17 15 18 21 21
7 6 6 19 25 24 15 17 25 13 17 19 17 23 21 16 20 20 19 16 13 14 18 12 3 8 10 13 14 11 14 16 18 20 17 19 21 34 31 23 23 20 21 23 25
9 8 13 19 18 16 20 14 28 22 12 14 20 22 14 17 13 16 17 17 11 21 20 15 7 6 8 5 5 6 23 19 21 23 22 21 23 27 29 25 20 19 19 21 25
Wind_Direction
224 226 223 224 219 215 210 224 219 212 210 212 219 232 231 188 197 231 232 184 185 14 312 280 263 275 264 207 213 356 148 262 255 260 257 109 262 132 353 253 212 185 284 67 135
225 221 224 225 220 213 210 203 211 212 208 202 192 196 199 189 241 248 196 92 343 320 271 249 243 234 230 232 207 221 225 227 233 238 263 288 268 311 249 218 225 219 186 180 156
225 220 219 224 222 213 202 201 203 205 204 196 186 187 173 198 246 251 211 188 202 244 257 278 277 234 237 226 208 221 247 256 249 235 238 247 255 239 255 262 264 267 197 182 179
229 222 216 218 220 218 205 198 194 199 200 190 172 172 174 208 222 50 57 204 195 225 234 238 229 222 226 221 220 256 240 263 226 186 229 244 267 248 233 268 297 314 312 169 191
227 223 217 214 214 217 211 201 194 191 189 181 169 163 186 213 220 127 241 183 199 203 214 220 223 223 232 235 232 238 259 236 241 214 240 262 246 257 253 264 271 236 249 191 202
230 219 216 212 210 208 210 206 197 187 181 178 176 173 214 226 209 164 263 108 188 197 206 213 227 227 253 243 225 230 239 241 238 239 236 253 257 240 235 222 258 243 231 222 209
229 224 215 210 207 204 204 202 199 191 180 177 171 195 220 220 197 233 228 231 214 198 206 215 221 236 222 250 243 261 253 243 246 235 238 255 256 245 250 252 252 245 233 227 215
229 224 214 212 208 203 199 197 198 189 181 177 171 198 227 226 227 226 227 209 207 215 215 210 228 250 242 247 238 234 240 248 236 234 231 222 264 243 227 232 232 233 229 221 222
226 220 210 210 208 202 197 194 192 186 174 168 178 207 224 138 218 214 219 202 186 197 208 180 210 223 210 229 229 221 238 230 249 229 223 213 263 251 250 221 235 236 223 219 220
224 214 207 203 203 206 197 189 186 173 169 161 209 192 237 216 195 202 209 217 144 159 149 191 208 207 218 210 220 216 227 247 251 226 217 236 247 260 276 266 248 244 231 220 218
230 211 197 196 197 204 199 174 175 184 175 183 189 196 318 191 166 191 182 192 161 188 205 185 207 209 214 217 231 249 243 234 240 237 240 247 250 254 250 242 236 234 231 223 221
239 201 197 189 187 186 199 183 192 125 174 209 174 204 273 161 172 185 180 178 193 205 201 198 233 225 226 229 234 243 247 244 243 240 226 260 259 256 254 251 249 240 237 230 219
239 189 188 182 181 180 195 193 182 149 165 207 202 202 167 195 194 188 189 195 191 199 194 201 228 230 233 233 232 229 236 236 248 225 233 272 271 265 259 254 250 247 242 245 226
204 194 181 172 181 191 202 183 189 262 175 163 200 191 181 196 206 185 197 191 200 208 206 221 218 204 212 231 213 234 220 245 263 276 254 228 281 267 255 238 231 235 236 233 234
208 173 176 172 154 188 184 149 141 67 214 156 168 149 172 182 128 200 193 202 203 199 193 209 227 226 227 222 220 243 236 236 242 251 264 262 267 268 252 259 249 232 230 232 228
209 172 168 189 201 183 143 145 111 223 201 167 144 173 169 192 172 148 181 216 217 216 220 215 173 240 224 229 218 222 228 246 235 248 238 243 239 255 243 257 255 254 241 233 233
196 175 169 182 191 162 148 159 195 217 154 144 164 172 174 180 159 170 179 185 178 181 208 216 204 202 252 210 232 211 199 203 217 206 238 238 237 241 261 264 266 254 254 250 243
199 180 183 188 189 172 166 189 213 142 172 174 164 160 184 159 179 180 183 191 205 209 184 197 202 200 191 215 201 213 211 210 221 229 245 208 228 245 227 238 256 268 270 266 275
188 185 191 188 176 180 199 204 200 153 151 151 154 164 137 174 146 183 192 199 201 199 201 199 219 175 195 195 204 206 220 232 268 260 297 236 255 270 245 257 271 269 274 262 244
185 188 198 181 170 182 218 198 166 170 151 149 153 184 171 177 170 182 188 204 205 209 219 200 221 204 199 196 223 236 205 215 207 213 228 239 243 254 226 233 238 253 260 265 257
185 192 181 171 164 194 209 215 128 185 155 165 171 175 187 179 188 190 189 174 198 193 203 213 229 140 195 202 211 207 227 230 257 243 255 273 250 251 255 269 256 244 262 275 276
180 199 161 158 186 202 205 175 150 182 187 168 184 181 186 179 180 196 200 198 196 181 192 190 207 204 197 169 228 233 228 234 240 205 211 285 269 290 303 313 311 336 292 288 294
181 172 167 169 193 186 173 159 191 186 174 169 172 191 186 172 187 197 209 191 198 183 177 174 202 162 216 264 239 228 233 227 241 256 261 265 274 278 313 318 318 317 341 328 326
167 170 157 184 198 191 164 189 189 206 170 177 167 171 166 175 189 180 199 172 194 184 182 169 191 222 219 192 92 218 222 234 233 243 249 238 262 273 270 276 284 300 308 313 311
172 177 161 171 193 207 161 170 180 183 130 143 166 172 165 163 177 190 176 154 171 186 175 184 223 220 238 261 300 268 231 225 236 243 240 254 255 268 273 284 293 283 288 298 294
141 174 163 164 190 199 177 184 165 181 160 185 168 172 171 164 177 176 168 176 173 178 190 207 214 225 263 251 244 253 256 245 239 248 253 258 262 262 274 285 278 272 268 268 277
145 147 147 158 182 181 197 148 170 175 207 181 159 162 182 167 164 168 159 186 177 175 186 188 162 161 244 195 215 269 233 238 245 248 243 248 254 277 275 272 284 289 277 280 275